This is the latest recevied weather packets stored in our database for station/object KC1OEK-13. If no packets are shown the sender has not sent any weather packets the latest 10 day(s).
| Time | Temp. | Humidity | Pressure | Rain* | Wind** | Luminosity | Snow |
|---|---|---|---|---|---|---|---|
| 1787631607 | 13.89° C | 98% | 1017 hPa | 0 mm | - | 0 W/m² | - |
| 1787631303 | 13.89° C | 97% | 1017.1 hPa | 0 mm | - | 0 W/m² | - |
| 1787631003 | 13.89° C | 97% | 1016.9 hPa | 0 mm | - | 0 W/m² | - |
| 1787630697 | 14.44° C | 97% | 1016.9 hPa | 0 mm | - | 0 W/m² | - |
| 1787630396 | 14.44° C | 97% | 1017.1 hPa | 0 mm | - | 0 W/m² | - |
| 1787630092 | 14.44° C | 97% | 1017.2 hPa | 0 mm | - | 0 W/m² | - |
| 1787629789 | 14.44° C | 97% | 1017.2 hPa | 0 mm | - | 0 W/m² | - |
| 1787629489 | 14.44° C | 96% | 1017.3 hPa | 0 mm | - | 0 W/m² | - |
| 1787629185 | 15° C | 96% | 1017.4 hPa | 0 mm | - | 0 W/m² | - |
| 1787628884 | 15° C | 96% | 1017.2 hPa | 0 mm | - | 0 W/m² | - |
| 1787628580 | 15° C | 96% | 1017.3 hPa | 0 mm | - | 0 W/m² | - |
| 1787628276 | 15° C | 95% | 1017.2 hPa | 0 mm | - | 0 W/m² | - |
| 1787627971 | 15° C | 95% | 1017.2 hPa | 0 mm | - | 0 W/m² | - |
| 1787627666 | 15° C | 94% | 1017.4 hPa | 0 mm | - | 0 W/m² | - |
| 1787627361 | 15.56° C | 94% | 1017.4 hPa | 0 mm | - | 0 W/m² | - |
| 1787627057 | 15.56° C | 93% | 1017.4 hPa | 0 mm | - | 0 W/m² | - |
| 1787626753 | 15.56° C | 92% | 1017.2 hPa | 0 mm | - | 0 W/m² | - |
| 1787626448 | 16.11° C | 91% | 1017.4 hPa | 0 mm | - | 0 W/m² | - |
| 1787626142 | 16.67° C | 90% | 1017.4 hPa | 0 mm | - | 0 W/m² | - |
| 1787625838 | 16.67° C | 90% | 1017.3 hPa | 0 mm | - | 0 W/m² | - |
| 1787625534 | 16.67° C | 88% | 1017.3 hPa | 0 mm | - | 0 W/m² | - |
| 1787625229 | 17.22° C | 86% | 1017.3 hPa | 0 mm | - | 0 W/m² | - |
| 1787624926 | 18.33° C | 85% | 1017.4 hPa | 0 mm | - | 0 W/m² | - |
| 1787624624 | 18.33° C | 86% | 1017.1 hPa | 0 mm | - | 0 W/m² | - |
| 1787624321 | 18.33° C | 86% | 1017.4 hPa | 0 mm | - | 0 W/m² | - |
* Rain latest hour (hover to see other rain measurements)
** Current wind speed in m/s (hover to see current wind gust speed)